Time,TemperatureF,DewpointF,PressureIn,WindDirection,WindDirectionDegrees,WindSpeedMPH,WindSpeedGustMPH,Humidity,HourlyPrecipIn,Conditions,Clouds,dailyrainin,SoftwareType,DateUTC
2013-09-29 00:05:00,53.6,42.1,30.05,SSW,211,0.0,0.0,65,0.00,,,0.00,Wunderground v.1.15,2013-09-29 07:05:00,
2013-09-29 00:10:00,53.5,42.0,30.05,SSW,211,0.0,0.0,65,0.00,,,0.00,Wunderground v.1.15,2013-09-29 07:10:00,
2013-09-29 00:20:00,53.3,42.6,30.05,SSW,211,0.0,1.0,67,0.00,,,0.00,Wunderground v.1.15,2013-09-29 07:20:00,
2013-09-29 00:25:00,53.5,42.0,30.05,SSW,211,0.0,1.0,65,0.00,,,0.00,Wunderground v.1.15,2013-09-29 07:25:00,
2013-09-29 00:35:00,53.3,42.6,30.05,SSW,211,1.0,3.0,67,0.00,,,0.00,Wunderground v.1.15,2013-09-29 07:35:00,
2013-09-29 00:40:00,53.2,42.5,30.05,SSW,211,0.0,0.0,67,0.00,,,0.00,Wunderground v.1.15,2013-09-29 07:40:00,
2013-09-29 00:50:00,52.8,42.5,30.05,SSW,211,0.0,0.0,68,0.00,,,0.00,Wunderground v.1.15,2013-09-29 07:50:00,
2013-09-29 00:55:00,52.5,42.2,30.05,SSW,211,0.0,0.0,68,0.00,,,0.00,Wunderground v.1.15,2013-09-29 07:55:00,
2013-09-29 01:05:00,52.2,42.3,30.06,SSW,211,0.0,0.0,69,0.00,,,0.00,Wunderground v.1.15,2013-09-29 08:05:00,
2013-09-29 01:10:00,52.2,42.7,30.06,SSW,211,1.0,1.0,70,0.00,,,0.00,Wunderground v.1.15,2013-09-29 08:10:00,
2013-09-29 01:20:00,52.3,42.8,30.07,WSW,255,1.0,4.0,70,0.00,,,0.00,Wunderground v.1.15,2013-09-29 08:20:00,
2013-09-29 01:25:00,52.5,43.4,30.07,West,262,1.0,4.0,71,0.00,,,0.00,Wunderground v.1.15,2013-09-29 08:25:00,
2013-09-29 01:35:00,52.5,43.4,30.07,West,262,0.0,1.0,71,0.00,,,0.00,Wunderground v.1.15,2013-09-29 08:35:00,
2013-09-29 01:40:00,52.5,43.4,30.07,West,262,1.0,2.0,71,0.00,,,0.00,Wunderground v.1.15,2013-09-29 08:40:00,
2013-09-29 01:50:00,52.3,43.5,30.07,West,262,1.0,1.0,72,0.00,,,0.00,Wunderground v.1.15,2013-09-29 08:50:00,
2013-09-29 01:55:00,52.0,43.3,30.07,West,262,0.0,2.0,72,0.00,,,0.00,Wunderground v.1.15,2013-09-29 08:55:00,
2013-09-29 02:05:00,51.7,43.3,30.07,West,262,1.0,1.0,73,0.00,,,0.00,Wunderground v.1.15,2013-09-29 09:05:00,
2013-09-29 02:10:00,51.6,43.2,30.07,West,262,0.0,0.0,73,0.00,,,0.00,Wunderground v.1.15,2013-09-29 09:10:00,
2013-09-29 02:20:00,51.7,43.7,30.07,West,262,1.0,1.0,74,0.00,,,0.00,Wunderground v.1.15,2013-09-29 09:20:00,
2013-09-29 02:25:00,51.9,43.9,30.07,West,262,1.0,1.0,74,0.00,,,0.00,Wunderground v.1.15,2013-09-29 09:25:00,
2013-09-29 02:30:00,51.9,43.9,30.06,West,262,1.0,1.0,74,0.00,,,0.00,Wunderground v.1.15,2013-09-29 09:30:00,
2013-09-29 02:40:00,51.6,43.6,30.06,West,262,0.0,0.0,74,0.00,,,0.00,Wunderground v.1.15,2013-09-29 09:40:00,
2013-09-29 02:50:00,51.3,43.6,30.06,West,262,0.0,0.0,75,0.00,,,0.00,Wunderground v.1.15,2013-09-29 09:50:00,
2013-09-29 02:55:00,51.0,43.7,30.06,West,263,1.0,1.0,76,0.00,,,0.00,Wunderground v.1.15,2013-09-29 09:55:00,
2013-09-29 03:05:00,51.1,43.8,30.06,West,263,0.0,1.0,76,0.00,,,0.00,Wunderground v.1.15,2013-09-29 10:05:00,
2013-09-29 03:10:00,51.1,43.8,30.06,West,263,0.0,0.0,76,0.00,,,0.00,Wunderground v.1.15,2013-09-29 10:10:00,
2013-09-29 03:20:00,51.1,44.1,30.06,West,263,0.0,0.0,77,0.00,,,0.00,Wunderground v.1.15,2013-09-29 10:20:00,
2013-09-29 03:25:00,51.1,44.1,30.06,West,263,0.0,0.0,77,0.00,,,0.00,Wunderground v.1.15,2013-09-29 10:25:00,
2013-09-29 03:30:00,51.3,44.0,30.06,West,263,0.0,0.0,76,0.00,,,0.00,Wunderground v.1.15,2013-09-29 10:30:00,
2013-09-29 03:40:00,51.4,44.1,30.06,West,263,1.0,1.0,76,0.00,,,0.00,Wunderground v.1.15,2013-09-29 10:40:00,
2013-09-29 03:50:00,51.3,44.0,30.06,West,263,0.0,0.0,76,0.00,,,0.00,Wunderground v.1.15,2013-09-29 10:50:00,
2013-09-29 03:55:00,51.3,44.3,30.06,West,263,0.0,0.0,77,0.00,,,0.00,Wunderground v.1.15,2013-09-29 10:55:00,
2013-09-29 04:00:00,51.3,44.3,30.05,West,263,0.0,0.0,77,0.00,,,0.00,Wunderground v.1.15,2013-09-29 11:00:00,
2013-09-29 04:10:00,51.3,44.3,30.05,West,263,0.0,0.0,77,0.00,,,0.00,Wunderground v.1.15,2013-09-29 11:10:00,
2013-09-29 04:15:00,51.1,44.1,30.06,West,263,0.0,0.0,77,0.00,,,0.00,Wunderground v.1.15,2013-09-29 11:15:00,
2013-09-29 04:25:00,50.8,43.8,30.06,West,263,1.0,2.0,77,0.00,,,0.00,Wunderground v.1.15,2013-09-29 11:25:00,
2013-09-29 04:30:00,50.7,44.1,30.05,West,263,0.0,0.0,78,0.00,,,0.00,Wunderground v.1.15,2013-09-29 11:30:00,
2013-09-29 04:40:00,50.5,44.2,30.05,West,263,0.0,0.0,79,0.00,,,0.00,Wunderground v.1.15,2013-09-29 11:40:00,
2013-09-29 04:45:00,50.2,43.9,30.05,West,263,0.0,0.0,79,0.00,,,0.00,Wunderground v.1.15,2013-09-29 11:45:00,
2013-09-29 04:55:00,49.9,44.0,30.05,West,263,1.0,3.0,80,0.00,,,0.00,Wunderground v.1.15,2013-09-29 11:55:00,
2013-09-29 05:00:00,49.9,44.0,30.05,West,263,1.0,1.0,80,0.00,,,0.00,Wunderground v.1.15,2013-09-29 12:00:00,
2013-09-29 05:10:00,49.8,43.9,30.05,West,263,0.0,0.0,80,0.00,,,0.00,Wunderground v.1.15,2013-09-29 12:10:00,
2013-09-29 05:20:00,49.6,44.0,30.05,West,263,0.0,0.0,81,0.00,,,0.00,Wunderground v.1.15,2013-09-29 12:20:00,
2013-09-29 05:25:00,49.5,43.9,30.05,West,263,0.0,0.0,81,0.00,,,0.00,Wunderground v.1.15,2013-09-29 12:25:00,
2013-09-29 05:35:00,49.4,43.8,30.05,West,263,0.0,0.0,81,0.00,,,0.00,Wunderground v.1.15,2013-09-29 12:35:00,
2013-09-29 05:40:00,49.2,43.6,30.05,West,263,0.0,0.0,81,0.00,,,0.00,Wunderground v.1.15,2013-09-29 12:40:00,
2013-09-29 05:50:00,49.1,43.8,30.05,West,263,0.0,0.0,82,0.00,,,0.00,Wunderground v.1.15,2013-09-29 12:50:00,
2013-09-29 05:55:00,48.9,43.3,30.05,West,263,0.0,0.0,81,0.00,,,0.00,Wunderground v.1.15,2013-09-29 12:55:00,
2013-09-29 06:05:00,48.8,43.5,30.06,West,263,0.0,0.0,82,0.00,,,0.00,Wunderground v.1.15,2013-09-29 13:05:00,
2013-09-29 06:10:00,48.8,43.5,30.06,West,263,0.0,0.0,82,0.00,,,0.00,Wunderground v.1.15,2013-09-29 13:10:00,
2013-09-29 06:20:00,48.8,43.9,30.06,West,263,0.0,0.0,83,0.00,,,0.00,Wunderground v.1.15,2013-09-29 13:20:00,
2013-09-29 06:25:00,48.9,44.0,30.06,West,263,0.0,0.0,83,0.00,,,0.00,Wunderground v.1.15,2013-09-29 13:25:00,
2013-09-29 06:35:00,48.8,43.5,30.06,West,263,0.0,0.0,82,0.00,,,0.00,Wunderground v.1.15,2013-09-29 13:35:00,
2013-09-29 06:40:00,48.8,43.5,30.06,West,263,0.0,1.0,82,0.00,,,0.00,Wunderground v.1.15,2013-09-29 13:40:00,
2013-09-29 06:50:00,48.8,43.9,30.06,West,263,0.0,0.0,83,0.00,,,0.00,Wunderground v.1.15,2013-09-29 13:50:00,
2013-09-29 06:55:00,49.1,44.5,30.06,West,263,0.0,0.0,84,0.00,,,0.00,Wunderground v.1.15,2013-09-29 13:55:00,
2013-09-29 07:05:00,49.1,44.5,30.06,West,263,0.0,0.0,84,0.00,,,0.00,Wunderground v.1.15,2013-09-29 14:05:00,
2013-09-29 07:10:00,49.1,44.2,30.06,West,263,0.0,0.0,83,0.00,,,0.00,Wunderground v.1.15,2013-09-29 14:10:00,
2013-09-29 07:20:00,49.1,44.2,30.06,West,263,0.0,0.0,83,0.00,,,0.00,Wunderground v.1.15,2013-09-29 14:20:00,
2013-09-29 07:30:00,49.6,45.0,30.06,West,263,0.0,0.0,84,0.00,,,0.00,Wunderground v.1.15,2013-09-29 14:30:00,
2013-09-29 07:35:00,49.8,44.8,30.06,West,263,0.0,0.0,83,0.00,,,0.00,Wunderground v.1.15,2013-09-29 14:35:00,
2013-09-29 07:40:00,49.9,44.9,30.06,West,263,0.0,0.0,83,0.00,,,0.00,Wunderground v.1.15,2013-09-29 14:40:00,
2013-09-29 07:50:00,50.2,45.2,30.07,West,263,0.0,0.0,83,0.00,,,0.00,Wunderground v.1.15,2013-09-29 14:50:00,
2013-09-29 07:55:00,50.5,45.5,30.07,West,263,0.0,0.0,83,0.00,,,0.00,Wunderground v.1.15,2013-09-29 14:55:00,
2013-09-29 08:05:00,51.0,46.0,30.07,West,263,0.0,0.0,83,0.00,,,0.00,Wunderground v.1.15,2013-09-29 15:05:00,
2013-09-29 08:10:00,51.3,46.0,30.07,West,263,0.0,0.0,82,0.00,,,0.00,Wunderground v.1.15,2013-09-29 15:10:00,
2013-09-29 08:20:00,52.2,46.9,30.07,West,263,0.0,0.0,82,0.00,,,0.00,Wunderground v.1.15,2013-09-29 15:20:00,
2013-09-29 08:25:00,52.8,47.5,30.07,West,263,0.0,0.0,82,0.00,,,0.00,Wunderground v.1.15,2013-09-29 15:25:00,
2013-09-29 08:35:00,55.3,50.9,30.07,West,271,0.0,0.0,85,0.00,,,0.00,Wunderground v.1.15,2013-09-29 15:35:00,
2013-09-29 08:45:00,60.2,54.7,30.07,NNE,30,2.0,4.0,82,0.00,,,0.00,Wunderground v.1.15,2013-09-29 15:45:00,
2013-09-29 08:50:00,61.6,54.3,30.07,NNW,340,2.0,6.0,77,0.00,,,0.00,Wunderground v.1.15,2013-09-29 15:50:00,
2013-09-29 09:00:00,63.1,54.7,30.07,NW,315,4.0,6.0,74,0.00,,,0.00,Wunderground v.1.15,2013-09-29 16:00:00,
2013-09-29 09:05:00,63.7,54.9,30.07,West,267,4.0,6.0,73,0.00,,,0.00,Wunderground v.1.15,2013-09-29 16:05:00,
2013-09-29 09:15:00,65.0,55.4,30.07,WSW,249,4.0,6.0,71,0.00,,,0.00,Wunderground v.1.15,2013-09-29 16:15:00,
2013-09-29 09:20:00,65.8,55.7,30.07,SW,234,4.0,6.0,70,0.00,,,0.00,Wunderground v.1.15,2013-09-29 16:20:00,
2013-09-29 09:30:00,66.9,56.0,30.07,West,279,3.0,4.0,68,0.00,,,0.00,Wunderground v.1.15,2013-09-29 16:30:00,
2013-09-29 09:40:00,66.9,56.0,30.07,WSW,252,6.0,6.0,68,0.00,,,0.00,Wunderground v.1.15,2013-09-29 16:40:00,
2013-09-29 09:45:00,66.6,55.7,30.07,WSW,248,6.0,6.0,68,0.00,,,0.00,Wunderground v.1.15,2013-09-29 16:45:00,
2013-09-29 09:50:00,66.3,55.8,30.07,SSE,158,5.0,6.0,69,0.00,,,0.00,Wunderground v.1.15,2013-09-29 16:50:00,
2013-09-29 10:00:00,66.0,55.9,30.07,SW,221,4.0,4.0,70,0.00,,,0.00,Wunderground v.1.15,2013-09-29 17:00:00,
2013-09-29 10:10:00,66.0,55.9,30.07,NW,306,4.0,4.0,70,0.00,,,0.00,Wunderground v.1.15,2013-09-29 17:10:00,
2013-09-29 10:15:00,66.1,55.6,30.07,WNW,299,4.0,5.0,69,0.00,,,0.00,Wunderground v.1.15,2013-09-29 17:15:00,
2013-09-29 10:25:00,66.3,56.2,30.07,West,261,5.0,10.0,70,0.00,,,0.00,Wunderground v.1.15,2013-09-29 17:25:00,
2013-09-29 10:35:00,66.4,55.9,30.07,West,275,4.0,4.0,69,0.00,,,0.00,Wunderground v.1.15,2013-09-29 17:35:00,
2013-09-29 10:40:00,66.4,55.9,30.07,NW,311,3.0,3.0,69,0.00,,,0.00,Wunderground v.1.15,2013-09-29 17:40:00,
2013-09-29 10:50:00,66.8,56.3,30.08,WSW,250,3.0,3.0,69,0.00,,,0.00,Wunderground v.1.15,2013-09-29 17:50:00,
2013-09-29 10:55:00,66.8,56.3,30.08,SSW,207,3.0,6.0,69,0.00,,,0.00,Wunderground v.1.15,2013-09-29 17:55:00,
2013-09-29 11:05:00,66.6,56.1,30.08,WNW,300,5.0,9.0,69,0.00,,,0.00,Wunderground v.1.15,2013-09-29 18:05:00,
2013-09-29 11:10:00,66.8,55.9,30.08,NW,310,5.0,9.0,68,0.00,,,0.00,Wunderground v.1.15,2013-09-29 18:10:00,
2013-09-29 11:20:00,66.4,55.9,30.08,West,281,7.0,7.0,69,0.00,,,0.00,Wunderground v.1.15,2013-09-29 18:20:00,
2013-09-29 11:30:00,66.4,55.9,30.08,NW,320,6.0,7.0,69,0.00,,,0.00,Wunderground v.1.15,2013-09-29 18:30:00,
2013-09-29 11:35:00,66.3,56.2,30.08,WNW,298,6.0,7.0,70,0.00,,,0.00,Wunderground v.1.15,2013-09-29 18:35:00,
2013-09-29 11:45:00,66.1,56.4,30.08,SSW,203,5.0,8.0,71,0.00,,,0.00,Wunderground v.1.15,2013-09-29 18:45:00,
2013-09-29 11:50:00,66.3,56.6,30.08,WSW,250,5.0,5.0,71,0.00,,,0.00,Wunderground v.1.15,2013-09-29 18:50:00,
2013-09-29 12:00:00,66.3,57.0,30.08,NNE,32,5.0,5.0,72,0.00,,,0.00,Wunderground v.1.15,2013-09-29 19:00:00,
2013-09-29 12:05:00,66.4,56.7,30.08,WNW,288,6.0,6.0,71,0.00,,,0.00,Wunderground v.1.15,2013-09-29 19:05:00,
2013-09-29 12:15:00,67.1,56.6,30.08,WNW,296,5.0,9.0,69,0.00,,,0.00,Wunderground v.1.15,2013-09-29 19:15:00,
2013-09-29 12:20:00,67.3,57.2,30.08,WNW,296,5.0,5.0,70,0.00,,,0.00,Wunderground v.1.15,2013-09-29 19:20:00,
2013-09-29 12:30:00,68.1,56.3,30.07,NW,317,5.0,7.0,66,0.00,,,0.00,Wunderground v.1.15,2013-09-29 19:30:00,
2013-09-29 12:40:00,68.9,56.2,30.07,NW,311,6.0,6.0,64,0.00,,,0.00,Wunderground v.1.15,2013-09-29 19:40:00,
2013-09-29 12:50:00,69.4,57.1,30.07,WNW,289,6.0,8.0,65,0.00,,,0.00,Wunderground v.1.15,2013-09-29 19:50:00,
2013-09-29 13:00:00,68.9,57.1,30.07,West,262,5.0,6.0,66,0.00,,,0.00,Wunderground v.1.15,2013-09-29 20:00:00,
2013-09-29 13:05:00,68.6,57.2,30.07,NW,312,6.0,6.0,67,0.00,,,0.00,Wunderground v.1.15,2013-09-29 20:05:00,
2013-09-29 13:15:00,68.6,57.2,30.07,WNW,301,5.0,11.0,67,0.00,,,0.00,Wunderground v.1.15,2013-09-29 20:15:00,
2013-09-29 13:20:00,68.4,57.4,30.07,NW,304,5.0,8.0,68,0.00,,,0.00,Wunderground v.1.15,2013-09-29 20:20:00,
2013-09-29 13:30:00,68.6,57.2,30.06,WNW,290,5.0,7.0,67,0.00,,,0.00,Wunderground v.1.15,2013-09-29 20:30:00,
2013-09-29 13:35:00,68.6,56.4,30.06,WSW,251,5.0,7.0,65,0.00,,,0.00,Wunderground v.1.15,2013-09-29 20:35:00,
2013-09-29 13:45:00,68.9,56.6,30.05,NW,306,5.0,5.0,65,0.00,,,0.00,Wunderground v.1.15,2013-09-29 20:45:00,
2013-09-29 13:50:00,68.9,57.1,30.05,NNW,327,4.0,7.0,66,0.00,,,0.00,Wunderground v.1.15,2013-09-29 20:50:00,
2013-09-29 14:00:00,69.4,57.1,30.05,WNW,290,4.0,4.0,65,0.00,,,0.00,Wunderground v.1.15,2013-09-29 21:00:00,
2013-09-29 14:05:00,69.6,57.3,30.05,SW,221,2.0,4.0,65,0.00,,,0.00,Wunderground v.1.15,2013-09-29 21:05:00,
2013-09-29 14:15:00,69.3,57.5,30.05,NW,315,4.0,7.0,66,0.00,,,0.00,Wunderground v.1.15,2013-09-29 21:15:00,
2013-09-29 14:20:00,68.9,57.9,30.05,NNW,335,5.0,5.0,68,0.00,,,0.00,Wunderground v.1.15,2013-09-29 21:20:00,
2013-09-29 14:30:00,69.1,56.8,30.05,WSW,254,6.0,6.0,65,0.00,,,0.00,Wunderground v.1.15,2013-09-29 21:30:00,
2013-09-29 14:40:00,69.3,57.0,30.05,WNW,286,5.0,12.0,65,0.00,,,0.00,Wunderground v.1.15,2013-09-29 21:40:00,
2013-09-29 14:45:00,69.3,57.0,30.04,WNW,289,6.0,12.0,65,0.00,,,0.00,Wunderground v.1.15,2013-09-29 21:45:00,
2013-09-29 14:55:00,69.8,56.6,30.04,WNW,292,6.0,6.0,63,0.00,,,0.00,Wunderground v.1.15,2013-09-29 21:55:00,
2013-09-29 15:00:00,70.3,56.2,30.04,West,281,5.0,5.0,61,0.00,,,0.00,Wunderground v.1.15,2013-09-29 22:00:00,
2013-09-29 15:10:00,70.4,56.3,30.04,WNW,284,5.0,7.0,61,0.00,,,0.00,Wunderground v.1.15,2013-09-29 22:10:00,
2013-09-29 15:20:00,70.4,56.3,30.04,WNW,302,4.0,4.0,61,0.00,,,0.00,Wunderground v.1.15,2013-09-29 22:20:00,
2013-09-29 15:25:00,70.6,55.1,30.04,NW,319,5.0,9.0,58,0.00,,,0.00,Wunderground v.1.15,2013-09-29 22:25:00,
2013-09-29 15:35:00,70.8,55.3,30.03,NW,309,4.0,5.0,58,0.00,,,0.00,Wunderground v.1.15,2013-09-29 22:35:00,
2013-09-29 15:40:00,70.9,55.4,30.03,WNW,289,4.0,4.0,58,0.00,,,0.00,Wunderground v.1.15,2013-09-29 22:40:00,
2013-09-29 15:50:00,71.6,55.6,30.03,NW,305,3.0,4.0,57,0.00,,,0.00,Wunderground v.1.15,2013-09-29 22:50:00,
2013-09-29 16:00:00,71.6,54.6,30.03,West,274,4.0,6.0,55,0.00,,,0.00,Wunderground v.1.15,2013-09-29 23:00:00,
2013-09-29 16:05:00,71.5,55.5,30.03,NW,315,5.0,6.0,57,0.00,,,0.00,Wunderground v.1.15,2013-09-29 23:05:00,
2013-09-29 16:10:00,71.5,55.5,30.03,NW,324,5.0,5.0,57,0.00,,,0.00,Wunderground v.1.15,2013-09-29 23:10:00,
2013-09-29 16:20:00,70.8,55.8,30.03,NNW,347,4.0,4.0,59,0.00,,,0.00,Wunderground v.1.15,2013-09-29 23:20:00,
2013-09-29 16:30:00,70.4,55.4,30.03,NW,306,4.0,6.0,59,0.00,,,0.00,Wunderground v.1.15,2013-09-29 23:30:00,
2013-09-29 16:35:00,70.1,55.6,30.03,NNW,328,4.0,6.0,60,0.00,,,0.00,Wunderground v.1.15,2013-09-29 23:35:00,
2013-09-29 16:45:00,69.4,55.8,30.02,West,280,5.0,6.0,62,0.00,,,0.00,Wunderground v.1.15,2013-09-29 23:45:00,
2013-09-29 16:50:00,69.4,55.8,30.02,NW,317,3.0,3.0,62,0.00,,,0.00,Wunderground v.1.15,2013-09-29 23:50:00,
2013-09-29 17:00:00,69.1,56.4,30.03,WSW,251,3.0,3.0,64,0.00,,,0.00,Wunderground v.1.15,2013-09-30 00:00:00,
2013-09-29 17:10:00,68.3,56.9,30.03,NNE,17,3.0,3.0,67,0.00,,,0.00,Wunderground v.1.15,2013-09-30 00:10:00,
2013-09-29 17:20:00,67.3,58.0,30.02,West,281,4.0,7.0,72,0.00,,,0.00,Wunderground v.1.15,2013-09-30 00:20:00,
2013-09-29 17:25:00,67.1,58.2,30.02,West,271,4.0,7.0,73,0.00,,,0.00,Wunderground v.1.15,2013-09-30 00:25:00,
2013-09-29 17:30:00,67.1,57.8,30.02,WNW,294,4.0,4.0,72,0.00,,,0.00,Wunderground v.1.15,2013-09-30 00:30:00,
2013-09-29 17:40:00,67.3,58.0,30.02,WNW,296,3.0,3.0,72,0.00,,,0.00,Wunderground v.1.15,2013-09-30 00:40:00,
2013-09-29 17:50:00,66.6,58.4,30.03,West,275,4.0,5.0,75,0.00,,,0.00,Wunderground v.1.15,2013-09-30 00:50:00,
2013-09-29 18:00:00,65.5,59.2,30.03,NW,309,5.0,6.0,80,0.00,,,0.00,Wunderground v.1.15,2013-09-30 01:00:00,
2013-09-29 18:10:00,65.0,59.4,30.03,East,82,1.0,1.0,82,0.00,,,0.00,Wunderground v.1.15,2013-09-30 01:10:00,
2013-09-29 18:15:00,64.8,59.2,30.02,North,355,1.0,4.0,82,0.00,,,0.00,Wunderground v.1.15,2013-09-30 01:15:00,
2013-09-29 18:25:00,65.0,58.3,30.02,WNW,286,4.0,7.0,79,0.00,,,0.00,Wunderground v.1.15,2013-09-30 01:25:00,
2013-09-29 18:30:00,65.0,58.3,30.03,West,275,4.0,4.0,79,0.00,,,0.00,Wunderground v.1.15,2013-09-30 01:30:00,
2013-09-29 18:40:00,64.8,58.5,30.03,NW,317,3.0,5.0,80,0.00,,,0.00,Wunderground v.1.15,2013-09-30 01:40:00,
2013-09-29 18:45:00,64.5,58.2,30.03,WNW,294,4.0,5.0,80,0.00,,,0.00,Wunderground v.1.15,2013-09-30 01:45:00,
2013-09-29 18:55:00,64.3,58.3,30.03,NW,325,3.0,6.0,81,0.00,,,0.00,Wunderground v.1.15,2013-09-30 01:55:00,
2013-09-29 19:00:00,64.0,58.4,30.04,WSW,246,3.0,8.0,82,0.00,,,0.00,Wunderground v.1.15,2013-09-30 02:00:00,
2013-09-29 19:10:00,63.5,58.6,30.04,WNW,283,1.0,2.0,84,0.00,,,0.00,Wunderground v.1.15,2013-09-30 02:10:00,
2013-09-29 19:20:00,63.4,58.5,30.04,WNW,289,1.0,1.0,84,0.00,,,0.00,Wunderground v.1.15,2013-09-30 02:20:00,
2013-09-29 19:25:00,63.4,58.5,30.04,WNW,289,0.0,1.0,84,0.00,,,0.00,Wunderground v.1.15,2013-09-30 02:25:00,
2013-09-29 19:35:00,63.4,58.5,30.04,NE,51,0.0,1.0,84,0.00,,,0.00,Wunderground v.1.15,2013-09-30 02:35:00,
2013-09-29 19:40:00,63.4,58.5,30.04,NE,51,0.0,0.0,84,0.00,,,0.00,Wunderground v.1.15,2013-09-30 02:40:00,
2013-09-29 19:50:00,63.4,58.1,30.05,NE,36,0.0,0.0,83,0.00,,,0.00,Wunderground v.1.15,2013-09-30 02:50:00,
2013-09-29 19:55:00,63.5,58.2,30.05,NE,36,0.0,3.0,83,0.00,,,0.00,Wunderground v.1.15,2013-09-30 02:55:00,
2013-09-29 20:05:00,63.4,58.5,30.05,NE,36,0.0,0.0,84,0.00,,,0.00,Wunderground v.1.15,2013-09-30 03:05:00,
2013-09-29 20:15:00,62.9,58.6,30.05,East,87,1.0,2.0,86,0.00,,,0.00,Wunderground v.1.15,2013-09-30 03:15:00,
2013-09-29 20:20:00,62.7,58.8,30.05,East,96,1.0,3.0,87,0.00,,,0.00,Wunderground v.1.15,2013-09-30 03:20:00,
2013-09-29 20:30:00,62.6,58.4,30.05,East,96,2.0,2.0,86,0.00,,,0.00,Wunderground v.1.15,2013-09-30 03:30:00,
2013-09-29 20:35:00,62.7,58.1,30.05,East,96,1.0,2.0,85,0.00,,,0.00,Wunderground v.1.15,2013-09-30 03:35:00,
2013-09-29 20:45:00,62.7,58.1,30.05,East,96,0.0,0.0,85,0.00,,,0.00,Wunderground v.1.15,2013-09-30 03:45:00,
2013-09-29 20:55:00,62.7,57.8,30.05,East,96,1.0,3.0,84,0.00,,,0.00,Wunderground v.1.15,2013-09-30 03:55:00,
2013-09-29 21:00:00,62.9,57.7,30.06,East,96,0.0,1.0,83,0.00,,,0.00,Wunderground v.1.15,2013-09-30 04:00:00,
2013-09-29 21:05:00,63.2,57.9,30.06,East,96,1.0,1.0,83,0.00,,,0.00,Wunderground v.1.15,2013-09-30 04:05:00,
2013-09-29 21:10:00,63.4,58.1,30.06,East,96,1.0,1.0,83,0.00,,,0.00,Wunderground v.1.15,2013-09-30 04:10:00,
2013-09-29 21:15:00,63.4,58.1,30.06,East,96,1.0,1.0,83,0.00,,,0.00,Wunderground v.1.15,2013-09-30 04:15:00,
2013-09-29 21:20:00,63.2,58.3,30.06,East,96,0.0,0.0,84,0.00,,,0.00,Wunderground v.1.15,2013-09-30 04:20:00,
2013-09-29 21:25:00,63.1,57.9,30.06,East,96,0.0,0.0,83,0.00,,,0.00,Wunderground v.1.15,2013-09-30 04:25:00,
2013-09-29 21:30:00,63.2,57.9,30.05,East,96,0.0,0.0,83,0.00,,,0.00,Wunderground v.1.15,2013-09-30 04:30:00,
2013-09-29 21:40:00,63.5,57.9,30.05,East,96,1.0,1.0,82,0.00,,,0.00,Wunderground v.1.15,2013-09-30 04:40:00,
2013-09-29 21:45:00,63.5,57.6,30.05,SE,126,1.0,1.0,81,0.00,,,0.00,Wunderground v.1.15,2013-09-30 04:45:00,
2013-09-29 21:50:00,63.5,57.9,30.05,ESE,113,1.0,1.0,82,0.00,,,0.00,Wunderground v.1.15,2013-09-30 04:50:00,
2013-09-29 21:55:00,63.7,57.8,30.05,ESE,113,0.0,1.0,81,0.00,,,0.00,Wunderground v.1.15,2013-09-30 04:55:00,
2013-09-29 22:05:00,63.7,57.8,30.05,ESE,113,0.0,0.0,81,0.00,,,0.00,Wunderground v.1.15,2013-09-30 05:05:00,
2013-09-29 22:15:00,63.5,57.9,30.05,ESE,113,0.0,0.0,82,0.00,,,0.00,Wunderground v.1.15,2013-09-30 05:15:00,
2013-09-29 22:20:00,63.5,57.6,30.05,ESE,102,1.0,1.0,81,0.00,,,0.00,Wunderground v.1.15,2013-09-30 05:20:00,
2013-09-29 22:30:00,63.7,57.8,30.05,ESE,116,1.0,1.0,81,0.00,,,0.00,Wunderground v.1.15,2013-09-30 05:30:00,
2013-09-29 22:35:00,63.7,57.8,30.05,ESE,116,1.0,1.0,81,0.00,,,0.00,Wunderground v.1.15,2013-09-30 05:35:00,
2013-09-29 22:45:00,63.7,57.4,30.05,ESE,116,0.0,1.0,80,0.00,,,0.00,Wunderground v.1.15,2013-09-30 05:45:00,
2013-09-29 22:50:00,63.9,57.6,30.05,SE,130,1.0,1.0,80,0.00,,,0.00,Wunderground v.1.15,2013-09-30 05:50:00,
2013-09-29 23:00:00,63.9,56.9,30.05,East,85,0.0,1.0,78,0.00,,,0.00,Wunderground v.1.15,2013-09-30 06:00:00,
2013-09-29 23:05:00,63.9,56.9,30.05,East,95,1.0,1.0,78,0.00,,,0.00,Wunderground v.1.15,2013-09-30 06:05:00,
2013-09-29 23:15:00,63.7,57.1,30.04,East,96,1.0,3.0,79,0.00,,,0.00,Wunderground v.1.15,2013-09-30 06:15:00,
2013-09-29 23:25:00,63.7,57.1,30.04,ESE,111,2.0,3.0,79,0.00,,,0.00,Wunderground v.1.15,2013-09-30 06:25:00,
2013-09-29 23:30:00,63.4,56.8,30.04,ESE,111,2.0,2.0,79,0.00,,,0.00,Wunderground v.1.15,2013-09-30 06:30:00,
2013-09-29 23:35:00,63.4,56.8,30.04,East,94,1.0,2.0,79,0.00,,,0.00,Wunderground v.1.15,2013-09-30 06:35:00,
2013-09-29 23:45:00,62.9,56.6,30.05,East,94,0.0,0.0,80,0.00,,,0.00,Wunderground v.1.15,2013-09-30 06:45:00,
2013-09-29 23:50:00,62.7,56.4,30.05,East,94,0.0,0.0,80,0.00,,,0.00,Wunderground v.1.15,2013-09-30 06:50:00,